Rbgn^[z[y[W
メイン
   新天体発見情報
     Comet C/2020 K1 (PANSTARRS)
投稿するにはまず登録を

スレッド表示 | 新しいものから 前のトピック | 次のトピック | 下へ
投稿者 スレッド
佐藤裕久
投稿日時: 2020-6-28 14:17
モデレータ
登録日: 2005-6-12
居住地: 日本
投稿: 2111
オンライン
Comet C/2020 K1 (PANSTARRS)

R. Weryk (ハワイ大学, 天文学研究所)の通報によると、5月17日、HaleakalaにあるPan-STARRS2 
1.8-m Ritchey-Chretien反射望遠鏡で得たCCD画像から彗星を発見した。先月、同じ望遠鏡で
発見前観測が追加され確認された。
4月17日に得たwバンド45秒4枚では、Werykは、0".5の集光したコマ(FWHM(半値全幅)は2".0の
シーイングで2".5)があり、尾はないと注記した。
小惑星センターのPCCP webpageに公表後、A. AlettiとL. Buzzi (0.36-m f/6 Schmidt-Cassegrain
反射望遠鏡, Varese, イタリア; 5月19.94-20.06日、30秒露出のスタックで、5"のコマが見え
るが、延長部や尾はない。測定したr光度は19.8等であった)によって彗星状と観測された。

彗星機能の追加報告は次の通り:

OC   Date        Reporter           Coma    Tail    PA          Exposures
F52  2020-04-17  R. Weryk            3"
F52  2020-04-27  R. Weryk            3"                          4x45s
F52  2020-05-06  R. Weryk            2"
246  2020-05-17  M. Tichy            4"                          4x45s
568  2020-05-19  R. Weryk            2"      2"     39           3x60s
204  2020-05-20  A. Aletti           7"                          100x30s

発見位置は次のとおり、

     2020 UT             R.A. (2000) Decl.       Mag.
     Apr. 17.55119   18 42 42.44   +56 19 12.6   20.4
          17.56480   18 42 42.28   +56 19 16.2   20.5
          17.57844   18 42 42.09   +56 19 19.7   20.1
          17.59207   18 42 41.93   +56 19 23.0   20.2
          27.55593   18 40 02.57   +56 59 54.5   20.2
          27.56963   18 40 02.28   +56 59 57.7   20.1
          27.58329   18 40 02.03   +57 00 01.1   20.1
          27.59699   18 40 01.73   +57 00 04.1   20.3
     May   6.51833   18 36 32.64   +57 32 32.0   20.0
           6.53143   18 36 32.26   +57 32 34.7   21.0
           6.54453   18 36 31.87   +57 32 37.4   20.3
           6.55761   18 36 31.53   +57 32 39.8   20.3
          17.51229   18 30 53.00   +58 05 26.4   20.6
          17.52592   18 30 52.52   +58 05 28.5   20.4
          17.53956   18 30 52.03   +58 05 30.6   20.1
          17.55319   18 30 51.56   +58 05 32.8   20.4

MPCの暫定放物線軌道要素と位置推算表は次のとおり、

Orbital elements:
    C/2020 K1 (PANSTARRS)                                                       
T 2023 May 8.68397 TT                                   Rudenko                 
q   3.0788717            (2000.0)            P               Q                  
                   Peri.  213.87857     +0.06723544     -0.03764300             
                   Node    94.40487     -0.53748707     +0.84052741             
e   1.0            Incl.   89.64214     -0.84058732     -0.54045969             
From 76 observations 2020 Apr. 17-May 21.                                       
                                                                                
Ephemeris:
Date    TT    R. A. (2000) Decl.     Delta      r    Elong.  Phase   m1
2020 04 21    18 41 56.3 +56 33 37   9.6129  9.6647    90.0     6.0  20.3
...
2020 05 06    18 36 46.4 +57 30 46   9.4661  9.5677    92.8     6.0  20.2
...
2020 05 14    18 32 50.9 +57 55 55   9.3903  9.5159    94.1     6.1  20.1
...
2020 05 20    18 29 24.4 +58 11 33   9.3351  9.4769    95.0     6.1  20.1
2020 05 21    18 28 47.7 +58 13 51   9.3260  9.4704    95.1     6.1  20.1
2020 05 22    18 28 10.3 +58 16 03   9.3170  9.4639    95.3     6.1  20.1
...
2020 05 28    18 24 13.5 +58 27 16   9.2639  9.4249    96.1     6.1  20.1
...
2020 06 05    18 18 29.0 +58 36 21   9.1961  9.3729    96.9     6.2  20.0
...
2020 06 20    18 06 44.9 +58 33 10   9.0792  9.2751    98.0     6.2  20.0

(MPEC 2020-K111、CBET 4779)

スレッド表示 | 新しいものから 前のトピック | 次のトピック | トップ

投稿するにはまず登録を
 
© 1999 Tsutomu Seki.